Location: Arpaise
(41.0333°N, 14.7333°E)
Time: 21:44:53
(UTC+00:00)

Cosmos 846 Rocket - Pass Details

Date: 26 January 2021
Orbit: 948 x 991 km, 82.9° (Epoch: 06 March)

Event Time Altitude Azimuth Distance (km) Brightness Sun altitude
Rises 05:37:43 0° 346° (NNW) 3,629 8.2 -7.8°
Reaches altitude 10° 05:40:18 10° 341° (NNW) 2,679 7.5 -7.3°
Maximum altitude 05:46:06 47° 270° (W) 1,242 5.7 -6.3°
Drops below altitude 10° 05:51:53 10° 198° (SSW) 2,669 7.8 -5.2°
Sets 05:54:27 0° 193° (SSW) 3,615 8.6 -4.8°
